This is the latest recevied weather packets stored in our database for station/object KE5VT. If no packets are shown the sender has not sent any weather packets the latest 10 day(s).
| Time | Temp. | Humidity | Pressure | Rain* | Wind** | Luminosity | Snow |
|---|---|---|---|---|---|---|---|
| 1787539658 | 25° C | 73% | 1011.8 hPa | 0 mm | - | 0 W/m² | - |
| 1787539356 | 25° C | 71% | 1011.8 hPa | 0 mm | - | 0 W/m² | - |
| 1787539052 | 25° C | 72% | 1011.8 hPa | 0 mm | - | 0 W/m² | - |
| 1787538749 | 25° C | 71% | 1011.6 hPa | 0 mm | - | 0 W/m² | - |
| 1787538446 | 25° C | 71% | 1011.6 hPa | 0 mm | - | 0 W/m² | - |
| 1787538140 | 25° C | 69% | 1011.6 hPa | 0 mm | - | 0 W/m² | - |
| 1787537836 | 25.56° C | 70% | 1011.4 hPa | 0 mm | - | 0 W/m² | - |
| 1787537533 | 25.56° C | 69% | 1011.7 hPa | 0 mm | - | 0 W/m² | - |
| 1787537229 | 25.56° C | 70% | 1011.7 hPa | 0 mm | - | 0 W/m² | - |
| 1787536928 | 25.56° C | 69% | 1011.5 hPa | 0 mm | - | 0 W/m² | - |
| 1787536627 | 25.56° C | 69% | 1011.6 hPa | 0 mm | - | 0 W/m² | - |
| 1787536324 | 25.56° C | 71% | 1011.6 hPa | 0 mm | - | 0 W/m² | - |
| 1787536020 | 25.56° C | 71% | 1011.3 hPa | 0 mm | - | 0 W/m² | - |
| 1787535720 | 25.56° C | 73% | 1011.4 hPa | 0 mm | - | 0 W/m² | - |
| 1787535415 | 25° C | 71% | 1011.3 hPa | 0 mm | - | 0 W/m² | - |
| 1787535111 | 25° C | 73% | 1011.2 hPa | 0 mm | - | 0 W/m² | - |
| 1787534810 | 25.56° C | 75% | 1011.3 hPa | 0 mm | - | 0 W/m² | - |
| 1787534510 | 26.11° C | 75% | 1011.1 hPa | 0 mm | - | 0 W/m² | - |
| 1787534209 | 26.67° C | 66% | 1011.1 hPa | 0 mm | - | 0 W/m² | - |
| 1787533905 | 27.22° C | 62% | 1011.1 hPa | 0 mm | - | 0 W/m² | - |
| 1787533601 | 27.22° C | 61% | 1011.1 hPa | 0 mm | - | 0 W/m² | - |
| 1787533297 | 27.22° C | 60% | 1010.8 hPa | 0 mm | - | 0 W/m² | - |
| 1787532991 | 27.22° C | 59% | 1010.8 hPa | 0 mm | - | 0 W/m² | - |
| 1787532687 | 27.22° C | 58% | 1010.8 hPa | 0 mm | - | 0 W/m² | - |
| 1787532383 | 27.78° C | 58% | 1010.8 hPa | 0 mm | - | 0 W/m² | - |
* Rain latest hour (hover to see other rain measurements)
** Current wind speed in m/s (hover to see current wind gust speed)